Location: Beutels
(47.8767°N, 9.8584°E)
Time: 02:18:44
(UTC+00:00)

BlueWalker 3 - Visible Passes

Search period start: 19 January 2026 00:00
Search period end: 29 January 2026 00:00
Orbit: 451 x 463 km, 53.2° (Epoch: 18 January)

Date Brightness Start Highest point End Pass type
(mag) Time Alt. Az. Time Alt. Az. Time Alt. Az.
19 Jan 4.4 18:32:37 10° SSW 18:33:08 13° SSW 18:33:08 13° SSW visible
20 Jan 3.4 17:57:34 10° S 17:59:37 21° SSE 17:59:37 21° SSE visible
21 Jan 3.4 17:22:38 10° S 17:25:10 19° SE 17:26:00 17° ESE visible
21 Jan 4.4 18:58:42 10° WSW 18:59:45 18° WSW 18:59:45 18° WSW visible
22 Jan 3.8 16:47:50 10° SSE 16:49:53 15° SE 16:51:56 10° E visible
22 Jan 2.4 18:23:19 10° SW 18:26:04 50° SW 18:26:04 50° SW visible
23 Jan 1.7 17:47:57 10° SW 17:51:30 64° SSE 17:52:17 47° E visible
23 Jan 5.1 19:25:45 10° W 19:26:01 12° W 19:26:01 12° W visible
24 Jan 2.1 17:12:38 10° SW 17:16:06 51° SE 17:18:26 19° ENE visible
24 Jan 3.8 18:50:13 10° W 18:52:10 27° WNW 18:52:10 27° WNW visible
25 Jan 2.5 16:37:21 10° SSW 16:40:43 40° SE 16:44:05 10° ENE visible
25 Jan 2.2 18:14:41 10° W 18:18:11 50° NNW 18:18:15 49° NNW visible
26 Jan 2.1 17:39:10 10° WSW 17:42:41 57° NNW 17:44:17 29° NE visible
26 Jan 4.8 19:17:21 10° WNW 19:18:01 14° WNW 19:18:01 14° WNW visible
27 Jan 1.9 17:03:39 10° WSW 17:07:12 67° NNW 17:10:17 13° ENE visible
27 Jan 3.5 18:41:48 10° WNW 18:44:01 27° NW 18:44:01 27° NW visible
28 Jan 2.7 18:06:14 10° WNW 18:09:33 35° N 18:09:59 33° N visible
